Regional Weather Roundup
Issued by NWS

Home | Current Version | Previous Version | Text Only | Print | Product List | Glossary Off
Versions: 1 2 3 4 5 6 7 8 9 10 11 12 13 14 15 16 17 18 19 20 21 22 23 24 25 26 27 28 29 30 31 32 33 34 35 36 37 38 39 40 41 42 43 44 45 46 47 48 49 50

000
ASUS45 KTFX 052110
RWRMT
MONTANA REGIONAL WEATHER ROUNDUP
NATIONAL WEATHER SERVICE GREAT FALLS MT
300 PM MDT SUN JUL 05 2015

NOTE: "FAIR" INDICATES FEW OR NO CLOUDS BELOW 12000 FEET WITH NO
SIGNIFICANT WEATHER AND/OR OBSTRUCTIONS TO VISIBILITY.

MTZ001>007-043-052200-
WEST OF THE DIVIDE

CITY           SKY/WX    TMP DP  RH WIND       PRES   REMARKS
KALISPELL      CLOUDY    64  42  44 NE16      30.10S
MISSOULA       PTSUNNY   70  50  49 NE12      30.02R
BUTTE          PTSUNNY   71  49  45 SE18      30.09F
MULLAN PASS    SUNNY     69  49  48 CALM      30.11S
DEER LODGE       N/A     64  48  55 N17G25    30.13R
EUREKA           N/A     70  41  35 NE10G17   30.09S
HAMILTON         N/A     64  55  72 N21       29.95R
LIBBY            N/A     72  45  37 E6        30.07S
PLAINS           N/A     80  50  35 NW2       30.01R
RONAN            N/A     71  49  45 N13       30.09S
$$

MTZ008-052>055-052200-
SOUTHWEST MONTANA

CITY           SKY/WX    TMP DP  RH WIND       PRES   REMARKS
BOZEMAN        CLOUDY    66  51  58 W7        30.09S
DILLON         CLOUDY    71  51  49 NE17      30.04F
W YELLOWSTONE  CLOUDY    68  50  52 SW21      30.14R
THREE FORKS      N/A     67  60  78 NE6       30.08S
TWIN BRIDGES     N/A     68  47  46 N24       30.03F
$$

MTZ009-010-012-014-046-048-049-054-052200-
EAST SLOPES AND CENTRAL MONTANA

CITY           SKY/WX    TMP DP  RH WIND       PRES   REMARKS
CUT BANK       CLOUDY    54  47  77 N8        30.21S
GREAT FALLS    LGT RAIN  52  50  93 NE10      30.18S FOG
MALMSTROM AFB  LGT RAIN  52  50  93 NE9       30.20S
HELENA         CLOUDY    58  46  64 N16       30.15R
CONRAD           N/A     53  53 100 W6        30.21R
$$

MTZ011-013-016-021-045-047-050-051-052200-
NORTH CENTRAL MONTANA

CITY           SKY/WX    TMP DP  RH WIND       PRES   REMARKS
HAVRE          CLOUDY    63  50  62 MISG      30.15R
LEWISTOWN      LGT RAIN  55  51  86 NE5       30.16S FOG
CHINOOK          N/A     63  54  72 SW10      30.13S
FORT BENTON      N/A     54  50  87 CALM      30.19F
$$

MTZ017>020-022>027-061-062-052200-
NORTHEAST MONTANA

CITY           SKY/WX    TMP DP  RH WIND       PRES   REMARKS
GLASGOW        MOSUNNY   69  51  52 NW13      30.06S
JORDAN           N/A     71  50  47 N17       30.08S
SIDNEY         CLOUDY    73  48  40 NW10      30.00R
WOLF POINT     PTSUNNY   72  50  45 NW9       30.04R
PLENTYWOOD       N/A     70  46  43 NW12G20   30.00R
POPLAR           N/A     70  52  52 NW9G16    30.03R
SCOBEY           N/A     68  45  43 NW12      30.03R
$$

MTZ028>42-056>058-052200-
SOUTHCENTRAL AND SOUTHEAST MONTANA

CITY           SKY/WX    TMP DP  RH WIND       PRES   REMARKS
BAKER          LGT RAIN  63  57  81 N12       30.03S
BILLINGS       CLOUDY    64  47  53 NE12      30.12F
LIVINGSTON     CLOUDY    64  49  57 E20G25    30.10S
MILES CITY     LGT RAIN  71  52  50 N9        30.04S
EKALAKA          N/A     62  54  75 N10       30.01S
FORSYTH          N/A     70  46  43 N6        30.06S
LAUREL           N/A     63  46  53 NE6       30.10S
ROUNDUP          N/A     65  45  48 N9        30.03S
$$

REGIONAL REPORTS...DAKOTAS

CITY           SKY/WX    TMP DP  RH WIND       PRES   REMARKS
WILLISTON      CLOUDY    75  49  39 N16G24    29.99R
MINOT          CLOUDY    74  60  61 NW10      29.90R HAZE
DICKINSON      CLOUDY    67  57  70 N16       29.96R HAZE
BEACH          FAIR      64  59  82 CALM      30.03R FOG
CROSBY         FAIR      72  50  46 NW16G24   29.98R
BISMARCK       PTSUNNY   76  61  59 N14G23    29.88R
GRAND FORKS    CLOUDY    73  67  81 VRB5      29.78R
FARGO          CLOUDY    83  69  62 NW9       29.74R
BUFFALO SD       N/A     73  56  54 N24       29.92R
RAPID CITY     PTSUNNY   79  65  62 N18G26    29.91R
$$

REGIONAL REPORTS...WYOMING/IDAHO/WASHINGTON

CITY           SKY/WX    TMP DP  RH WIND       PRES   REMARKS
GILLETTE       CLOUDY    64  59  83 N13       30.06R
SHERIDAN       LGT RAIN  59  55  87 NW14      30.11R FOG
BUFFALO WY     RAIN      58  56  93 N13       30.13R FOG
CODY           CLOUDY    55  54  94 NE8       30.14R
YELLOWSTONE LA   N/A     61  47  59 MISG      30.25S
IDAHO FALLS    CLOUDY    81  53  37 S21       30.03F
SALMON         CLOUDY    86  48  26 CALM      29.85F
BOISE          CLOUDY    82  52  35 N8        29.96R
SPOKANE        PTSUNNY   85  47  26 NE15      29.92R
$$

REGIONAL REPORTS...ALBERTA

CITY           SKY/WX    TMP DP  RH WIND       PRES   REMARKS
EDMONTON       MOSUNNY   66  37  34 NW6G17    30.17S
CALGARY        PTSUNNY   59  41  51 N16G23    30.21R
LETHBRIDGE     CLOUDY    63  46  55 N8        30.19R
MEDICINE HAT   PTSUNNY   66  46  48 NW13G21   30.13S
CARDSTON         N/A     55  50  82 NW5         N/A
MILK RIVER       N/A     55  48  76 NW10        N/A
ONEFOUR          N/A     59  46  63 NW13        N/A
$$

REGIONAL REPORTS...SASKATCHEWAN

CITY           SKY/WX    TMP DP  RH WIND       PRES   REMARKS
SWIFT CURRENT  CLOUDY    61  48  63 NW15G21   30.08R
REGINA         PTSUNNY   70  50  49 NW18G28   30.00S
SASKATOON      PTSUNNY   64  48  55 N18G26    30.04R
CYPRESS HILLS    N/A     55  43  62 NW7         N/A
VAL MARIE        N/A     66  48  52 NW16G24     N/A
ROCKGLEN         N/A     64  46  52 NW13G20     N/A
ASSINIBOIA       N/A     64  43  45 N12G17      N/A
$$


USA.gov is the U.S. government's official web portal to all federal, state and local government web resources and services.